Regional Weather Roundup
Issued by NWS

Home | Current Version | Previous Version | Graphics & Text | Print | Product List | Glossary On
Versions: 1 2 3 4 5 6 7 8 9 10 11 12 13 14 15 16 17 18 19 20 21 22 23 24 25 26 27 28 29 30 31 32 33 34 35 36 37 38 39 40 41 42 43 44 45 46 47 48 49 50
000
ASUS45 KSLC 190510
RWRUT

UTAH REGIONAL WEATHER ROUNDUP
NATIONAL WEATHER SERVICE SALT LAKE CITY UT
1100 PM MDT SAT APR 18 2015

UTZ001>011-023>025-190600-

NORTHERN UTAH

CITY           SKY/WX    TMP DP  RH WIND       PRES   REMARKS
BRIGHAM CITY   CLEAR     54  29  39 CALM      30.02R
HILL AFB       CLEAR     56  32  39 VRB2      30.01S
LOGAN          CLEAR     50  32  50 CALM      30.02R
OGDEN          CLEAR     55  30  38 N7        30.00R
PROVO AIRPORT  CLEAR     48  34  57 CALM      30.02R
SALT LAKE CITY CLEAR     56  37  49 S3        30.00R
VERNAL         CLOUDY    47  36  65 SW5       30.10R
WENDOVER       CLEAR     57  12  17 W7        30.04S
HEBER CITY     PTCLDY    43  30  61 CALM      30.05R
WEST JORDAN    CLEAR     52  34  50 W5        30.02R

$$

UTZ012>022-026-027-190600-

SOUTHERN/CENTRAL UTAH

CITY           SKY/WX    TMP DP  RH WIND       PRES   REMARKS
BLANDING       MOCLDY    46  40  79 NE13      30.13R
BRYCE CANYON   CLEAR     36  19  50 W9        30.12R WCI  29
CEDAR CITY     PTCLDY    48  21  34 E3        30.04R
DELTA          CLEAR     51  22  32 E6        30.02S
HANKSVILLE     CLEAR     52  37  58 N6        30.05R
MILFORD        PTCLDY    47  19  33 N6        30.02R
MOAB/CYNLANDS  PTCLDY    48  42  80 E8        30.03R
PRICE          MOCLDY    51  30  44 NE14      30.06R
ST GEORGE      PTCLDY    66  18  15 S3        29.93R
KANAB          CLEAR     48  19  32 N7        30.05R

$$

REGIONAL REPORTS     COLORADO/ARIZONA

CITY           SKY/WX    TMP DP  RH WIND       PRES   REMARKS
CRAIG, CO      MOCLDY    35  31  85 SW10      30.08R WCI  27
GRAND JUNCTION CLOUDY    39  37  92 E5        30.06F
RIFLE          MOCLDY    33  32  96 S3        30.08R FOG
MONTROSE       CLOUDY    37  36  96 W3        30.09F
CORTEZ         PTCLDY    42  34  73 S5        30.04R
PAGE, AZ       CLEAR     61  23  23 W3        29.97R
GRAND CANYON   CLEAR     33  13  43 CALM      30.10R
KINGMAN        CLEAR     53  15  22 SE6       29.95S
FLAGSTAFF      CLEAR     38  13  35 CALM      30.10R

$$

REGIONAL REPORTS    NEVADA/IDAHO/WYOMING

CITY           SKY/WX    TMP DP  RH WIND       PRES   REMARKS
LAS VEGAS, NV  CLEAR     77  12   8 S13       29.82R
ELY            MOCLDY    52  18  26 N12       30.11R
ELKO           CLEAR     49  15  25 E5        30.12R
POCATELLO, ID  CLEAR     53  27  36 VRB3      30.07R
BURLEY         CLEAR     55  25  31 SW16G26   30.03S
EVANSTON, WY   CLOUDY    44  18  35 N7        30.09R
ROCK SPRINGS   CLOUDY    40  34  79 NE16      30.14R WCI  31
KEMMERER       PTCLDY    41  28  60 E6        30.13S

$$


USA.gov is the U.S. government's official web portal to all federal, state and local government web resources and services.